Regional Weather Roundup
Issued by NWS

Home | Current Version | Previous Version | Graphics & Text | Print | Product List | Glossary On
Versions: 1 2 3 4 5 6 7 8 9 10 11 12 13 14 15 16 17 18 19 20 21 22 23 24 25 26 27 28 29 30 31 32 33 34 35 36 37 38 39 40 41 42 43 44 45 46 47 48 49 50
000
ASUS43 KDTX 300210
RWRMI
MICHIGAN HOURLY REGIONAL WEATHER ROUNDUP
NATIONAL WEATHER SERVICE DETROIT/PONTIAC MI
1000 PM EDT SAT AUG 29 2015

NOTE: "FAIR" INDICATES FEW OR NO CLOUDS BELOW 12,000 FEET WITH NO
SIGNIFICANT WEATHER AND/OR OBSTRUCTION TO VISIBILITY.

MIZ047>049-052>055-059>063-066>070-074>076-081>083-300300-
SOUTHEAST LOWER MICHIGAN

CITY           SKY/WX    TMP DP  RH WIND       PRES   REMARKS
ADRIAN         CLOUDY    68  67  96 W5        30.09R FOG
ALMA           CLOUDY    64  64  99 CALM      30.08S FOG
ANN ARBOR      LGT RAIN  67  64  90 CALM      30.08R
BAD AXE        CLOUDY    64  63  96 CALM      30.10R FOG
CARO           DRIZZLE   64  63  98 CALM      30.08S
DETROIT CITY   CLOUDY    70  63  78 CALM      30.08R
DETROIT        CLOUDY    73  63  70 CALM      30.08R
FLINT          CLOUDY    68  64  87 E5        30.09R FOG
GROSSE ILE     CLOUDY    70  64  83 CALM      30.06S
HILLSDALE      LGT RAIN  69  68  95 SW3       30.10R
HOWELL         LGT RAIN  66  65  97 CALM      30.09R

CITY           SKY/WX    TMP DP  RH WIND       PRES   REMARKS
JACKSON        CLOUDY    67  65  93 SE5       30.09R
LAMBERTVILLE   CLOUDY    70  66  89 CALM      30.08R
LANSING        LGT RAIN  66  64  93 CALM      30.08R
LAPEER         CLOUDY    64  64  99 CALM      30.09F
MASON          LGT RAIN  66  63  90 CALM      30.08R
MT. CLEMENS    CLOUDY    68  66  93 N5        30.07R
PONTIAC        CLOUDY    66  64  93 E3        30.08S
PORT HOPE        N/A     66  63  90 CALM      30.08R
PORT HURON     CLOUDY    66  64  94 W3        30.10R
TRI CITIES     LGT RAIN  66  63  90 NE3       30.08S FOG
MIDLAND        CLOUDY    65  63  96 CALM      30.08R FOG
TROY           LGT RAIN  69  66  90 N3        30.10R
SAGINAW HB     LGT RAIN  64  63  94 E3        30.07S
$$
MIZ043>046-050>051-056>058-064>065-071>073-077>080-300300-
SOUTHWEST LOWER MICHIGAN

CITY           SKY/WX    TMP DP  RH WIND       PRES   REMARKS
BATTLE CREEK   CLOUDY    68  66  93 SE8       30.07R
BENTON HARBOR  CLOUDY    68  67  96 CALM      30.03R FOG
BIG RAPIDS     CLOUDY    64  63  97 CALM      30.08R FOG
COLDWATER      LGT RAIN  67  67 100 SE5       30.07S
FREMONT        LGT RAIN  64  64 100 E3        30.06R
HOLLAND        CLOUDY    68  65  90 E3        30.05R
GRAND RAPIDS   CLOUDY    66  65  96 E6        30.06R FOG
IONIA          CLOUDY    65  65  99 E5        30.06S FOG
KALAMAZOO      CLOUDY    68  65  90 SE3       30.05S FOG
LUDINGTON      CLOUDY    66  63  90 CALM      30.07R
MARSHALL       DRIZZLE   67  66  97 SE5       30.08R
MOUNT PLEASANT CLOUDY    66  64  93 CALM      30.07S FOG
MUSKEGON       CLOUDY    66  63  90 CALM      30.05S FOG
SOUTH HAVEN    LGT RAIN  67  66  94 E3        30.03R
$$
MIZ016>042-300300-
NORTHERN LOWER MICHIGAN

CITY           SKY/WX    TMP DP  RH WIND       PRES   REMARKS
ALPENA         CLEAR     61  58  90 CALM      30.08R
BEAVER ISLAND  CLEAR     61  59  94 S5        30.05S
BELLAIRE       CLEAR     62  60  94 CALM      30.07R
CADILLAC       PTCLDY    60  58  94 CALM      30.08S
CHARLEVOIX     CLEAR     62  61  97 CALM      30.09S
FRANKFORT      CLEAR     62  61  96 CALM      30.06S
GAYLORD        CLEAR     63  60  90 CALM      30.09R
GRAYLING       MOCLDY    60  58  94 CALM      30.10R
HARBOR SPRINGS PTCLDY    62  60  93 CALM      30.07R
HOUGHTON LAKE  MOCLDY    60  59  96 CALM      30.09R
MANISTEE       CLOUDY    64  61  88 CALM      30.07R
OSCODA         CLEAR     62  60  96 CALM      30.07S
PELLSTON       CLEAR     59  58  96 CALM      30.07R
ROGERS CITY    MOCLDY    63  61  94 CALM      30.08S FOG
TRAVERSE CITY  MOCLDY    65  61  87 CALM      30.06R
$$
MIZ007>008-015-300300-
EASTERN UPPER MICHIGAN

CITY           SKY/WX    TMP DP  RH WIND       PRES   REMARKS
KINROSS        CLEAR     63  63 100 S3        30.06R
MACKINAC ISLAN CLEAR     64  59  83 SW6       30.05S
NEWBERRY       CLEAR     61  60  97 S6        30.04S
S. S. MARIE    PTCLDY    63  59  87 S5        30.05R
MUNISING         N/A     68  61  78 S6        30.02R
$$
MIZ004>006-011>014-085-300300-
CENTRAL UPPER MICHIGAN

CITY           SKY/WX    TMP DP  RH WIND       PRES   REMARKS
MANISTIQUE     CLEAR     62  60  96 SW3       30.04R
ESCANABA       CLEAR     63  59  88 S5        30.03R
MENOMINEE      CLEAR     61  57  88 SW3       30.05R
SAWYER-GWINN   CLEAR     63  57  82 CALM      30.04R
$$
MIZ001>003-009>011-084-300300-
WESTERN UPPER MICHIGAN

CITY           SKY/WX    TMP DP  RH WIND       PRES   REMARKS
IRON MOUNTAIN  CLEAR     66  61  84 S6        30.03R
HOUGHTON       CLOUDY    67  59  75 CALM      30.00R
IRONWOOD       PTCLDY    63  63 100 CALM      29.99S
$$

ABBREVIATIONS USED IN REMARKS
   TC - TEMPERATURE IN CELSIUS
  WCI - WIND CHILL INDEX
   HX - HEAT INDEX
  VSB - VISIBILITY




USA.gov is the U.S. government's official web portal to all federal, state and local government web resources and services.